When you browse on this site, cookies collect data to enhance your experience and personalize the content and advertising you see.
Visit our Privacy Policy to learn more. By continuing to use the site, you agree to this use of cookies and data.
  • In Spain
  • List of Countries
  • For 7 days
  • Water Temperature
  • Satellite Maps
  • Weather Map
  • Weather Widgets
  • user-avatar
    Login

    Hourly Weather Kurmany

    Today, 19 March, Tuesday

    Time Temperature Precipitation Wind Pressure Humidity
    00:00 +5°C° 0 mm 6 mps 753 mmHg 69%
    01:00 +4°C° 0 mm 6 mps 753 mmHg 71%
    02:00 +4°C° 0 mm 4 mps 753 mmHg 79%
    03:00 +3°C° 0 mm 5 mps 753 mmHg 80%
    04:00 +2°C° 0 mm 5 mps 753 mmHg 81%
    05:00 +2°C° 0 mm 6 mps 753 mmHg 82%
    06:00 +3°C° 0 mm 6 mps 754 mmHg 79%
    07:00 +3°C° 0 mm 6 mps 754 mmHg 75%
    08:00 +4°C° 0 mm 7 mps 754 mmHg 72%
    09:00 +5°C° 0 mm 7 mps 755 mmHg 67%
    10:00 +8°C° 0 mm 6 mps 755 mmHg 62%
    11:00 +9°C° 0 mm 6 mps 755 mmHg 57%
    12:00 +10°C° 0 mm 6 mps 755 mmHg 54%
    13:00 +11°C° 0 mm 6 mps 755 mmHg 52%
    14:00 +13°C° 0 mm 5 mps 755 mmHg 47%
    15:00 +12°C° 0 mm 4 mps 755 mmHg 52%
    16:00 +11°C° 0 mm 3 mps 755 mmHg 57%
    17:00 +12°C° 0 mm 2 mps 755 mmHg 62%
    18:00 +10°C° 0 mm 2 mps 755 mmHg 67%
    19:00 +10°C° 0 mm 1 mps 755 mmHg 73%
    20:00 +9°C° 0 mm 1 mps 755 mmHg 78%
    21:00 +9°C° 0 mm 1 mps 755 mmHg 81%
    22:00 +8°C° 0 mm 1 mps 756 mmHg 84%
    23:00 +8°C° 0 mm 1 mps 756 mmHg 86%

    Tomorrow, 20 March, Wednesday

    Time Temperature Precipitation Wind Pressure Humidity
    00:00 +8°C° 0.1 mm 1 mps 756 mmHg 88%
    01:00 +7°C° 0.1 mm 1 mps 756 mmHg 90%
    02:00 +7°C° 0.1 mm 1 mps 756 mmHg 92%
    03:00 +6°C° 0.3 mm 2 mps 756 mmHg 93%
    04:00 +6°C° 0.3 mm 2 mps 756 mmHg 93%
    05:00 +5°C° 0.3 mm 2 mps 756 mmHg 94%
    06:00 +5°C° 0.5 mm 2 mps 756 mmHg 92%
    07:00 +4°C° 0.5 mm 3 mps 757 mmHg 91%
    08:00 +4°C° 0.5 mm 3 mps 757 mmHg 89%
    09:00 +4°C° 0.6 mm 3 mps 757 mmHg 86%
    10:00 +4°C° 0.6 mm 3 mps 757 mmHg 84%
    11:00 +5°C° 0.6 mm 2 mps 758 mmHg 82%
    12:00 +5°C° 0.2 mm 3 mps 758 mmHg 76%
    13:00 +7°C° 0.2 mm 3 mps 758 mmHg 70%
    14:00 +8°C° 0.2 mm 3 mps 758 mmHg 64%
    15:00 +8°C° 0 mm 3 mps 758 mmHg 63%
    16:00 +8°C° 0 mm 3 mps 758 mmHg 62%
    17:00 +7°C° 0 mm 2 mps 758 mmHg 60%
    18:00 +6°C° 0 mm 2 mps 758 mmHg 63%
    19:00 +5°C° 0 mm 2 mps 759 mmHg 65%
    20:00 +3°C° 0 mm 3 mps 759 mmHg 68%
    21:00 +2°C° 0 mm 3 mps 759 mmHg 70%
    22:00 +2°C° 0 mm 3 mps 759 mmHg 72%
    23:00 +1°C° 0 mm 3 mps 759 mmHg 75%

    Day after tomorrow, 21 March, Thursday

    Time Temperature Precipitation Wind Pressure Humidity
    00:00 +2°C° 0 mm 2 mps 759 mmHg 78%
    01:00 +1°C° 0 mm 2 mps 759 mmHg 81%
    02:00 +1°C° 0 mm 2 mps 759 mmHg 84%
    03:00 +1°C° 0 mm 2 mps 759 mmHg 85%
    04:00 -1°C° 0 mm 2 mps 759 mmHg 86%
    05:00 -1°C° 0 mm 2 mps 759 mmHg 86%
    06:00 0°C° 0 mm 3 mps 759 mmHg 80%
    07:00 +1°C° 0 mm 3 mps 759 mmHg 74%
    08:00 +1°C° 0 mm 4 mps 759 mmHg 68%
    09:00 +2°C° 0 mm 5 mps 758 mmHg 63%
    10:00 +3°C° 0 mm 5 mps 758 mmHg 58%
    11:00 +5°C° 0 mm 6 mps 758 mmHg 53%
    12:00 +5°C° 0 mm 6 mps 757 mmHg 56%
    13:00 +5°C° 0 mm 6 mps 757 mmHg 59%
    14:00 +5°C° 0 mm 6 mps 757 mmHg 62%
    15:00 +5°C° 0 mm 6 mps 757 mmHg 63%
    16:00 +6°C° 0 mm 5 mps 757 mmHg 64%
    17:00 +6°C° 0 mm 5 mps 757 mmHg 65%
    18:00 +5°C° 0 mm 4 mps 757 mmHg 70%
    19:00 +4°C° 0 mm 4 mps 757 mmHg 75%
    20:00 +3°C° 0 mm 4 mps 757 mmHg 80%
    21:00 +2°C° 0 mm 3 mps 757 mmHg 82%
    22:00 +2°C° 0 mm 3 mps 757 mmHg 84%
    23:00 +2°C° 0 mm 3 mps 757 mmHg 86%

    22 March, Friday

    Time Temperature Precipitation Wind Pressure Humidity
    00:00 +1°C° 0 mm 3 mps 757 mmHg 87%
    01:00 +1°C° 0 mm 3 mps 757 mmHg 87%
    02:00 +1°C° 0 mm 3 mps 757 mmHg 87%
    03:00 +1°C° 0 mm 3 mps 757 mmHg 88%
    04:00 +1°C° 0 mm 3 mps 756 mmHg 89%
    05:00 +1°C° 0 mm 3 mps 756 mmHg 90%
    06:00 +1°C° 0.2 mm 4 mps 756 mmHg 90%
    07:00 +3°C° 0.2 mm 4 mps 756 mmHg 90%
    08:00 +2°C° 0.2 mm 5 mps 755 mmHg 90%
    09:00 +3°C° 0.1 mm 5 mps 755 mmHg 90%
    10:00 +3°C° 0.1 mm 5 mps 755 mmHg 90%
    11:00 +5°C° 0.1 mm 5 mps 755 mmHg 89%
    12:00 +5°C° 0 mm 5 mps 754 mmHg 89%
    13:00 +5°C° 0 mm 6 mps 754 mmHg 89%
    14:00 +7°C° 0 mm 6 mps 754 mmHg 88%
    15:00 +7°C° 0 mm 6 mps 753 mmHg 88%
    16:00 +7°C° 0 mm 5 mps 753 mmHg 87%
    17:00 +7°C° 0 mm 5 mps 753 mmHg 87%
    18:00 +7°C° 0 mm 5 mps 753 mmHg 85%
    19:00 +7°C° 0 mm 5 mps 753 mmHg 84%
    20:00 +7°C° 0 mm 5 mps 754 mmHg 83%
    21:00 +6°C° 0 mm 5 mps 754 mmHg 82%
    22:00 +5°C° 0 mm 5 mps 754 mmHg 81%
    23:00 +5°C° 0 mm 5 mps 754 mmHg 80%

    23 March, Saturday

    Time Temperature Precipitation Wind Pressure Humidity
    00:00 +3°C° 0 mm 5 mps 754 mmHg 77%
    01:00 +2°C° 0 mm 5 mps 754 mmHg 74%
    02:00 +1°C° 0 mm 4 mps 755 mmHg 70%
    03:00 0°C° 0 mm 4 mps 755 mmHg 71%
    04:00 -1°C° 0 mm 4 mps 755 mmHg 73%
    05:00 -1°C° 0 mm 4 mps 755 mmHg 74%
    06:00 -1°C° 0 mm 4 mps 756 mmHg 71%
    07:00 0°C° 0 mm 5 mps 756 mmHg 68%
    08:00 +1°C° 0 mm 5 mps 756 mmHg 65%
    09:00 +2°C° 0 mm 5 mps 756 mmHg 62%
    10:00 +3°C° 0 mm 5 mps 756 mmHg 59%
    11:00 +5°C° 0 mm 4 mps 757 mmHg 55%
    12:00 +6°C° 0 mm 4 mps 756 mmHg 53%
    13:00 +6°C° 0 mm 4 mps 756 mmHg 50%
    14:00 +7°C° 0 mm 4 mps 756 mmHg 48%
    15:00 +7°C° 0 mm 4 mps 756 mmHg 49%
    16:00 +8°C° 0 mm 3 mps 756 mmHg 50%
    17:00 +8°C° 0 mm 3 mps 756 mmHg 52%
    18:00 +7°C° 0 mm 2 mps 756 mmHg 55%
    19:00 +6°C° 0 mm 2 mps 756 mmHg 59%
    20:00 +5°C° 0 mm 2 mps 756 mmHg 62%
    21:00 +5°C° 0 mm 2 mps 756 mmHg 62%
    22:00 +5°C° 0 mm 2 mps 756 mmHg 63%
    23:00 +5°C° 0 mm 2 mps 755 mmHg 63%

    24 March, Sunday

    Time Temperature Precipitation Wind Pressure Humidity
    00:00 +5°C° 0 mm 2 mps 755 mmHg 69%
    01:00 +4°C° 0 mm 3 mps 755 mmHg 75%
    02:00 +4°C° 0 mm 3 mps 755 mmHg 81%
    03:00 +5°C° 0 mm 3 mps 755 mmHg 86%
    04:00 +5°C° 0 mm 3 mps 755 mmHg 90%
    05:00 +5°C° 0 mm 3 mps 754 mmHg 94%
    06:00 +5°C° 0 mm 4 mps 754 mmHg 93%
    07:00 +6°C° 0 mm 4 mps 754 mmHg 93%
    08:00 +6°C° 0 mm 4 mps 754 mmHg 92%
    09:00 +8°C° 0.1 mm 4 mps 754 mmHg 88%
    10:00 +10°C° 0.1 mm 4 mps 754 mmHg 85%
    11:00 +11°C° 0.1 mm 4 mps 754 mmHg 81%
    12:00 +10°C° 0.5 mm 3 mps 754 mmHg 85%
    13:00 +9°C° 0.5 mm 3 mps 754 mmHg 89%
    14:00 +8°C° 0.5 mm 3 mps 754 mmHg 93%
    15:00 +9°C° 0 mm 2 mps 754 mmHg 90%
    16:00 +9°C° 0 mm 2 mps 754 mmHg 86%
    17:00 +10°C° 0 mm 1 mps 754 mmHg 82%
    18:00 +10°C° 0 mm 1 mps 754 mmHg 85%
    19:00 +8°C° 0 mm 0 mps 754 mmHg 87%
    20:00 +7°C° 0 mm 0 mps 753 mmHg 90%
    21:00 +7°C° 0 mm 1 mps 753 mmHg 91%
    22:00 +6°C° 0 mm 2 mps 753 mmHg 93%
    23:00 +5°C° 0 mm 3 mps 752 mmHg 94%
    Show more